Wind_Speed
20 21 18 18 20 20 19 18 18 17 17 16 15 14 13 13 12 12 11 11 11 11 10 10 10 10 10 10 10 9 9 9 8 8 8 8 8 8 7 8 8 9 9 9 9 9 10 11 10 9 9 7 7 7 6 7 11 12 12 12 13 13 17 21 15 9 8 8 8 7 6 5 6 7 6 3 3 2 6 2 7 3 2 4 6
21 21 19 18 20 20 19 18 17 17 17 17 15 15 14 14 13 12 11 11 10 11 10 10 10 10 10 10 9 9 8 8 8 7 7 8 7 7 5 6 7 7 6 6 7 8 8 9 8 7 7 7 8 8 7 8 11 13 13 12 13 13 14 18 18 13 10 8 7 7 5 3 6 6 3 3 3 1 6 1 6 3 1 5 6
20 20 20 19 21 21 19 18 17 17 18 17 16 16 15 14 13 12 11 10 10 10 10 10 10 9 9 9 9 9 8 8 7 6 6 6 6 5 4 4 5 5 4 4 5 7 6 7 7 6 6 7 8 8 8 10 11 10 9 8 9 10 9 11 15 15 13 9 7 9 6 4 6 6 3 2 2 2 4 2 4 2 2 5 8
17 18 19 19 20 20 18 17 17 17 19 18 16 16 16 14 14 12 10 10 11 10 10 10 9 9 9 9 8 8 8 8 7 6 6 5 5 5 4 4 4 4 2 2 4 5 4 4 4 5 5 5 6 6 4 6 8 7 7 8 9 8 5 7 11 11 11 9 8 8 6 4 4 3 2 1 2 1 3 3 5 6 7 7 9
13 13 16 19 19 18 17 17 17 16 18 17 15 15 15 13 13 11 10 10 11 10 10 10 9 9 9 9 9 9 8 7 7 6 6 5 5 5 5 4 5 4 3 2 3 5 3 2 2 4 3 3 4 4 2 2 6 8 11 12 11 9 6 7 7 4 5 8 8 5 3 3 2 1 2 2 5 3 3 6 7 9 11 11 11
12 10 12 16 18 19 18 17 17 16 16 15 13 12 12 11 12 12 11 11 11 10 10 10 10 10 10 9 9 9 8 7 7 6 6 6 6 6 6 6 6 5 4 4 3 3 4 3 2 4 4 2 2 4 4 3 1 5 12 13 11 9 8 5 5 3 3 6 7 6 4 2 2 2 2 2 3 3 7 10 9 9 11 12 13
14 13 13 14 16 16 15 15 16 17 16 16 15 14 12 12 12 12 11 11 11 10 10 10 11 11 10 11 11 11 11 9 7 7 7 7 7 7 7 7 6 6 5 5 4 4 5 4 2 3 4 4 3 4 5 4 3 2 7 10 9 7 5 2 4 4 3 3 4 5 4 4 1 2 2 1 1 4 9 11 10 11 10 11 14
13 14 14 13 12 12 12 12 14 16 17 17 17 17 16 15 13 11 10 10 10 11 10 10 11 12 12 11 11 10 9 8 6 8 9 10 9 9 9 9 8 8 5 4 4 4 4 4 3 2 3 4 4 5 5 4 4 5 2 3 2 1 1 1 2 3 4 4 1 2 0 2 3 0 2 2 2 5 8 8 8 10 11 13 14
9 10 10 10 11 11 12 12 12 14 15 15 16 17 17 15 13 12 10 10 9 10 11 12 12 13 13 12 8 6 6 8 10 12 12 11 12 12 12 10 8 5 4 3 5 5 5 6 7 6 6 7 7 6 6 5 5 5 5 3 3 3 1 1 2 3 5 7 2 1 2 1 5 4 3 4 3 3 4 5 6 8 12 14 12
6 8 10 10 11 11 11 10 9 11 12 12 13 14 13 13 13 11 9 10 9 9 10 12 12 11 11 10 7 8 12 14 14 14 12 11 12 12 11 9 7 6 6 6 9 10 9 10 11 10 8 10 11 9 8 8 6 5 5 4 3 3 3 2 2 3 6 9 7 5 3 4 7 7 5 5 4 3 4 6 8 11 13 13 12
6 9 11 11 10 9 10 10 9 10 10 10 11 11 10 10 11 10 9 11 13 12 12 12 12 10 9 8 8 9 13 15 15 15 14 13 13 11 9 8 8 9 10 10 12 13 13 12 13 12 10 11 12 11 10 10 9 7 7 7 7 6 5 3 2 1 4 6 8 9 7 6 8 7 5 6 5 4 6 8 9 11 12 12 13
7 9 10 9 8 8 9 9 9 9 9 9 10 10 10 10 10 9 10 12 15 17 16 15 14 12 10 9 9 10 12 14 15 17 17 15 15 13 10 8 9 10 10 11 12 14 14 12 12 11 10 12 13 11 10 12 12 11 10 10 10 8 6 5 3 1 3 4 6 8 8 7 7 5 3 4 4 5 7 8 8 9 11 12 14
7 8 8 7 6 7 7 8 9 8 7 7 7 7 9 9 10 10 10 11 14 17 19 19 17 15 13 11 10 11 12 13 14 17 19 18 18 17 13 11 12 13 11 11 12 13 12 11 11 9 10 14 12 9 9 11 12 13 12 12 12 11 9 7 5 4 1 2 3 5 5 4 5 5 4 5 6 7 8 8 8 9 12 14 16
9 8 8 7 6 7 7 7 7 6 6 6 6 6 8 8 9 10 10 10 11 14 16 17 18 17 15 13 12 11 13 15 16 17 19 19 20 19 15 13 14 13 11 11 12 11 11 11 13 12 12 15 13 9 9 10 10 11 13 13 13 12 11 10 8 8 6 3 1 1 1 1 3 3 2 4 6 6 7 8 11 13 16 17 19
12 13 11 9 9 8 8 7 6 5 4 4 4 5 7 8 9 10 9 9 9 11 13 15 17 17 16 14 13 12 13 16 17 17 18 19 19 17 13 13 14 12 10 10 11 10 10 11 13 13 13 15 14 11 11 10 8 9 11 12 11 10 11 11 9 9 8 7 5 4 4 4 3 3 4 6 8 8 8 11 13 15 17 18 18
14 16 16 14 13 11 9 8 6 5 4 3 1 1 4 6 7 9 9 9 9 10 12 13 15 16 15 14 14 14 15 16 17 17 18 19 18 15 12 13 14 11 9 9 9 9 11 12 14 16 16 15 14 12 13 11 6 6 8 9 8 8 9 10 10 9 8 7 7 6 6 7 7 7 9 9 11 12 12 13 12 12 14 16 16
18 17 17 16 15 14 13 12 11 9 8 6 5 5 2 1 3 6 8 9 10 11 13 14 14 15 16 16 16 16 17 17 17 18 19 18 16 15 14 14 14 12 10 12 11 11 13 13 12 16 19 16 14 13 12 9 5 5 9 11 9 8 8 8 9 8 7 7 7 7 8 9 9 9 10 11 12 13 13 11 9 9 11 13 13
18 17 16 16 15 15 14 13 13 12 11 11 11 10 7 5 4 4 6 7 9 10 11 12 14 15 16 17 17 17 17 17 18 19 19 17 15 16 17 15 14 14 12 13 13 13 13 11 10 14 17 16 15 14 10 8 7 8 11 13 11 9 8 8 9 9 8 7 7 7 8 9 9 10 12 13 13 12 10 8 7 7 8 9 11
15 15 15 15 15 15 14 12 11 11 11 12 12 12 10 9 9 9 8 8 9 9 11 12 13 14 15 15 16 16 16 16 17 18 17 16 15 18 19 16 14 16 15 12 10 11 12 11 10 11 12 11 12 12 10 10 10 10 13 15 13 12 11 8 6 7 5 4 5 6 8 9 11 12 12 12 11 10 10 8 7 6 6 9 12
13 13 14 14 14 14 14 11 10 10 10 11 11 12 12 11 12 12 11 9 10 11 11 12 13 14 15 15 15 15 15 15 16 17 16 17 18 19 19 16 13 17 18 13 11 11 11 12 11 9 7 8 8 9 12 14 11 10 13 14 11 9 9 8 7 6 3 2 4 6 9 11 12 12 11 12 12 13 13 11 9 7 7 10 13
13 13 14 14 14 14 13 12 12 11 11 12 12 13 13 13 14 15 13 11 12 14 12 12 14 16 17 18 16 15 16 17 18 18 18 19 20 20 19 15 11 13 16 14 13 12 10 10 10 8 7 8 8 10 14 14 8 7 10 11 10 11 10 7 6 4 3 3 5 7 8 9 10 11 12 12 10 8 8 9 7 7 9 13 16
13 14 14 14 14 14 14 14 14 15 14 14 15 15 14 14 14 15 15 14 15 16 14 12 14 16 16 19 16 15 17 18 19 20 21 22 22 21 21 17 9 9 15 15 13 13 12 11 11 10 9 9 10 12 14 12 7 6 7 7 9 9 6 3 2 2 3 4 5 7 8 8 9 10 10 7 5 5 2 2 4 9 13 16 16
12 13 14 15 15 15 15 16 16 16 16 16 17 17 17 16 16 16 17 18 17 17 17 16 17 17 14 16 16 16 18 19 19 20 21 23 23 22 23 21 14 9 15 17 14 14 14 14 13 13 11 10 10 11 12 10 6 3 3 2 2 1 1 0 1 2 3 4 6 7 8 9 9 8 7 6 6 6 6 9 13 16 16 15 14
12 13 14 15 16 16 17 17 17 17 17 18 19 20 19 19 19 19 19 19 19 18 18 17 18 18 15 14 16 17 17 18 19 20 22 22 23 22 21 22 18 12 13 18 18 17 17 17 16 15 12 11 10 10 9 7 4 2 0 2 3 3 3 2 2 3 4 4 6 7 8 8 6 7 8 7 8 10 13 15 15 14 13 14 15
13 14 14 14 15 16 16 17 18 18 18 18 19 20 20 19 19 19 19 19 20 20 19 18 18 18 16 15 15 15 17 18 20 21 21 21 21 22 21 21 21 16 11 16 21 21 19 19 18 15 13 12 11 10 8 6 4 2 2 3 3 3 3 2 1 3 3 4 6 7 6 5 6 7 8 8 9 11 12 11 10 11 14 16 17
15 15 15 15 16 16 17 17 17 17 18 19 19 20 20 20 20 20 20 20 20 20 20 20 18 16 13 12 12 12 12 15 17 21 23 22 21 21 20 19 21 16 12 16 21 21 20 20 18 16 14 13 11 10 8 5 3 2 2 2 1 2 1 1 1 2 3 5 6 6 5 6 7 8 9 9 10 11 12 12 13 14 16 16 17
15 16 16 16 17 18 18 18 18 18 18 19 19 19 20 20 20 21 20 20 21 22 21 21 21 19 17 13 11 12 11 7 9 13 17 18 20 21 19 17 18 16 15 18 21 22 22 21 18 17 16 14 12 9 7 4 3 2 1 3 4 3 2 2 2 3 3 4 4 5 5 7 8 9 9 10 11 12 13 14 14 15 15 16 17
15 16 16 16 17 17 18 19 19 19 18 18 18 19 19 20 20 21 20 18 17 16 16 16 17 19 23 22 19 16 16 13 9 9 12 13 14 17 19 17 16 17 20 22 24 24 24 22 19 18 16 14 11 9 6 4 4 4 4 5 4 3 3 2 2 2 1 1 3 5 6 8 8 9 9 10 10 11 12 12 13 14 15 16 16
14 15 15 15 15 15 16 17 18 19 19 19 20 20 20 20 20 22 24 24 21 18 17 19 18 14 14 19 21 21 21 21 17 14 15 16 14 14 15 15 14 17 21 23 25 26 24 22 20 19 16 13 11 8 7 6 7 6 4 4 4 4 4 2 0 1 1 1 4 6 7 7 8 8 9 10 11 11 12 13 14 15 16 16 16
12 12 12 13 13 14 15 16 17 18 19 21 22 23 24 24 23 23 25 27 27 26 26 26 26 23 18 14 15 18 21 25 22 15 13 15 16 16 15 16 18 21 23 24 24 25 24 22 21 19 17 15 12 11 12 12 10 8 7 5 3 3 3 2 0 1 2 4 6 6 6 7 8 8 9 10 12 12 13 14 15 15 15 15 15
11 12 12 12 14 15 16 16 17 18 19 20 22 23 24 26 26 25 25 24 24 26 28 29 30 28 24 20 18 16 16 19 21 20 17 17 21 21 18 17 20 23 25 25 24 24 23 21 20 18 17 15 13 13 14 14 11 10 9 6 4 3 1 2 2 1 3 4 4 5 7 8 8 8 9 10 11 13 13 14 14 14 14 14 14
11 12 12 13 14 15 15 16 16 16 17 18 19 20 21 23 24 24 23 23 24 25 26 28 29 28 25 23 21 18 17 18 19 22 23 22 25 26 23 19 20 23 25 24 23 22 22 21 19 18 17 17 15 14 13 12 11 11 10 9 8 7 5 4 3 2 3 3 4 6 8 8 7 8 9 10 12 13 13 13 13 13 13 14 14
12 13 13 14 15 15 16 17 16 16 16 16 17 18 19 19 20 22 23 24 25 25 25 25 25 25 24 21 18 17 18 18 17 19 22 24 25 23 20 20 24 26 25 23 22 21 21 19 19 19 18 17 15 14 13 11 10 9 8 7 7 7 5 3 1 1 1 2 5 7 8 8 8 9 11 11 11 12 12 12 13 13 14 15 15
12 13 14 15 16 17 18 18 18 18 18 18 18 18 18 18 19 19 20 21 22 23 25 25 21 20 20 19 17 16 18 19 19 18 20 24 24 20 16 20 26 28 26 24 22 22 21 19 19 19 17 15 15 14 13 11 10 9 7 5 5 5 4 2 2 1 1 3 6 7 7 8 9 9 9 9 9 10 11 11 12 12 12 14 16
13 13 14 15 15 16 16 17 17 18 18 18 19 18 18 18 18 17 17 17 18 21 24 23 16 13 14 15 15 15 17 20 22 22 23 25 26 23 21 24 26 26 24 21 20 21 21 19 18 17 15 15 16 14 12 11 11 9 8 7 5 4 3 2 2 1 3 5 5 6 8 10 10 8 7 7 9 10 10 10 10 11 12 14 16
12 13 13 13 14 15 16 17 18 17 16 17 18 18 18 20 18 16 16 17 18 19 21 19 13 11 12 12 13 14 16 20 25 28 29 29 29 29 31 34 33 29 25 20 19 21 21 18 16 16 15 15 16 14 12 12 10 9 9 8 5 3 3 3 2 1 4 4 4 6 9 10 10 9 8 8 9 9 9 10 10 11 12 13 15
12 12 12 13 15 17 17 17 17 17 18 19 18 17 18 18 16 14 15 16 17 19 22 19 14 12 10 9 11 12 14 18 23 26 27 28 30 30 31 35 36 31 26 19 16 17 20 18 15 16 16 15 15 13 12 11 10 8 8 6 4 4 3 2 2 1 2 3 4 7 9 9 10 11 9 9 9 9 9 10 11 12 14 15 16
12 12 12 14 17 18 16 16 16 17 17 17 16 15 15 15 14 14 15 16 17 20 23 20 13 9 7 8 11 12 13 15 17 20 23 28 29 23 20 24 27 26 23 18 13 15 20 17 15 17 16 14 15 15 13 11 9 7 7 5 3 4 3 3 3 2 2 4 6 7 9 9 10 10 9 8 9 9 9 10 12 14 16 16 16
12 13 13 15 16 16 15 16 17 17 16 14 14 14 14 13 14 14 14 15 16 18 22 22 14 9 7 8 11 12 13 17 20 22 24 25 23 19 17 18 18 17 17 14 12 17 20 17 15 17 15 13 13 15 14 11 8 7 6 4 3 4 2 1 1 3 3 5 6 8 9 9 9 10 9 8 9 9 10 12 13 14 15 16 17
11 11 13 14 15 14 15 15 15 15 15 13 12 13 13 12 13 12 12 14 15 17 21 21 13 9 9 11 12 12 13 16 20 22 22 20 17 16 17 16 13 12 13 13 13 16 18 16 16 16 14 12 13 14 13 11 7 5 4 3 3 5 4 4 4 4 4 6 7 8 9 9 8 9 9 8 9 10 11 12 14 15 15 17 18
10 11 12 14 14 14 15 17 17 15 12 11 11 12 12 11 11 11 10 12 12 12 11 7 2 5 7 11 12 11 11 15 18 18 16 14 14 17 19 17 14 13 13 12 12 15 17 18 17 15 14 13 13 13 12 9 7 6 6 6 7 7 6 6 5 4 5 6 6 8 8 8 8 9 9 9 9 10 11 12 13 15 16 17 17
9 10 11 13 14 14 15 17 17 14 13 13 12 11 10 10 10 10 9 9 8 7 7 7 7 6 6 10 11 10 13 18 20 19 16 14 14 16 17 16 15 15 14 13 14 16 19 19 17 15 14 12 11 12 11 9 8 9 9 8 7 6 6 6 5 5 4 4 5 7 7 7 8 8 8 8 9 10 11 13 14 15 16 16 16
10 11 11 12 13 13 14 17 18 15 14 14 14 13 12 12 12 11 8 5 7 10 11 10 10 11 11 12 12 13 16 20 20 19 18 16 15 16 16 15 15 16 15 15 17 18 19 19 18 17 16 15 14 14 12 11 12 12 10 9 7 5 4 4 4 4 4 4 4 6 7 7 8 7 7 7 9 11 14 16 17 16 15 15 16
12 12 11 12 13 12 13 17 19 16 12 11 14 16 16 14 14 15 13 11 11 12 11 11 13 15 15 14 15 17 19 19 20 21 21 21 21 22 20 18 17 17 16 15 16 18 19 20 20 18 17 16 16 16 13 11 11 11 10 9 7 5 5 5 5 5 5 5 5 5 6 7 6 5 5 8 11 15 17 17 16 15 15 17 17
11 11 11 12 12 11 12 16 18 16 13 12 14 17 18 17 16 17 17 14 13 13 12 12 13 14 14 15 17 19 20 20 22 23 24 23 23 22 21 19 17 17 17 17 17 18 19 20 19 17 15 13 12 11 11 10 9 8 9 7 6 6 8 7 5 4 4 5 5 5 5 4 3 3 6 11 15 17 17 15 14 14 16 17 18
11 10 10 11 11 10 11 14 16 17 17 17 15 15 16 16 16 17 17 16 15 14 13 11 11 14 16 16 17 18 19 21 22 23 24 23 22 20 19 18 16 16 17 20 21 21 22 21 19 18 17 15 12 11 10 10 8 7 6 5 6 7 8 7 5 4 4 5 6 6 5 5 5 5 8 13 16 16 14 14 14 15 16 17 17
11 10 9 10 11 10 11 13 14 14 17 19 18 16 16 16 17 17 18 18 17 16 15 14 14 15 17 18 18 18 20 21 22 22 22 22 21 20 19 19 17 16 17 20 21 20 19 18 17 17 17 16 14 13 12 9 6 4 4 4 4 5 6 6 5 4 4 6 7 7 7 7 6 8 11 14 15 14 13 14 15 16 17 17 16
10 9 9 9 10 10 11 12 13 13 14 15 17 17 17 16 16 17 17 18 18 17 17 19 20 20 20 20 21 21 21 22 22 22 21 21 21 20 20 19 17 16 16 18 18 18 16 15 14 15 15 13 11 10 9 6 4 3 4 4 3 3 5 6 5 4 4 6 8 8 9 9 9 10 12 13 14 13 14 15 17 18 18 16 13
9 9 8 9 9 10 10 11 12 13 13 13 14 16 16 16 16 16 16 16 17 17 18 19 21 22 23 23 23 23 23 23 23 23 23 22 21 19 17 16 14 13 13 14 15 15 15 14 14 13 12 10 8 6 5 4 3 4 4 4 3 2 4 6 6 5 5 7 8 9 10 10 10 11 11 12 13 14 14 16 19 20 17 13 13
8 7 8 8 8 9 10 10 10 11 12 12 12 14 15 15 16 16 16 16 17 17 18 19 20 21 23 23 23 23 23 23 23 23 23 21 20 18 16 14 13 13 14 14 14 13 12 12 12 12 11 9 6 5 5 5 4 4 4 4 3 2 3 5 7 6 5 6 8 9 10 11 11 11 11 12 13 14 14 15 18 19 16 13 15
7 6 7 8 8 7 8 9 10 10 10 11 12 13 13 14 14 14 15 17 18 19 20 21 21 21 22 22 22 22 22 21 21 21 20 20 18 16 14 13 13 14 15 15 14 14 13 11 9 9 9 7 4 4 5 6 5 5 5 4 3 3 4 6 7 7 7 7 8 10 12 12 12 12 12 13 14 15 14 14 17 18 15 14 16
Wind_Direction
168 171 174 175 176 175 174 174 173 175 175 173 174 175 174 173 172 172 171 170 168 165 165 163 157 151 144 140 136 131 129 124 119 114 112 113 108 101 102 101 99 97 92 88 89 88 85 85 79 74 81 71 65 87 89 86 93 79 76 81 56 62 104 113 111 105 104 127 129 124 149 158 142 134 119 91 31 149 190 290 355 6 97 32 3
170 174 176 178 181 178 176 176 175 177 176 173 175 174 172 171 171 172 172 173 174 174 174 171 167 160 152 149 144 140 139 132 128 128 125 122 114 106 102 100 101 100 90 90 98 90 82 88 86 82 88 65 51 63 51 61 87 78 67 71 57 57 92 117 126 129 130 143 142 139 150 125 129 142 124 93 50 134 187 234 349 322 295 9 355
172 176 176 177 180 179 178 178 177 177 176 175 176 175 173 171 171 172 173 175 180 183 181 177 175 170 163 160 156 152 150 143 139 140 135 130 125 118 111 105 108 106 95 103 110 99 89 91 87 83 86 69 58 66 59 56 74 88 85 79 72 68 75 102 123 133 141 154 152 138 127 83 110 135 147 125 57 71 157 132 23 34 15 357 343
171 174 174 175 177 175 176 178 178 178 177 178 178 176 175 172 170 172 174 179 185 188 184 180 182 181 174 170 168 163 161 158 154 155 153 151 151 149 146 142 139 131 124 126 112 108 111 104 97 93 89 86 81 81 75 56 59 83 109 112 108 96 62 72 102 129 146 144 128 114 115 122 115 117 140 80 342 318 139 99 45 35 29 11 343
171 175 172 171 171 171 174 177 178 178 176 177 177 173 176 176 173 176 178 179 187 189 184 184 191 190 185 183 181 177 177 172 166 170 173 176 184 184 179 179 173 168 184 181 126 121 128 124 135 130 111 110 108 99 118 93 58 68 91 104 105 95 76 65 70 104 136 126 128 123 119 132 110 164 179 28 346 324 31 51 46 24 12 4 349
172 184 177 168 166 168 171 173 175 172 170 172 167 165 179 185 179 183 185 183 188 189 183 188 198 196 195 197 191 183 184 184 180 187 193 197 205 207 202 201 198 195 203 204 181 170 171 160 150 148 144 151 128 114 134 154 101 73 88 101 106 100 100 77 30 26 92 107 131 144 146 135 30 32 125 53 21 21 21 25 35 25 5 352 341
175 185 179 170 169 167 163 165 170 172 174 178 169 163 179 192 188 189 190 186 189 192 190 196 205 206 205 204 203 199 194 193 198 202 205 211 218 222 218 213 212 212 210 211 215 218 211 201 186 163 163 174 172 155 158 178 203 146 95 103 112 102 97 45 18 41 47 48 96 108 129 158 153 340 337 3 45 41 25 17 13 7 355 339 331
180 182 173 170 170 166 163 168 176 178 181 185 178 170 175 184 189 193 196 195 193 195 201 206 210 213 217 215 214 210 195 188 206 213 212 219 224 227 229 226 222 224 227 230 228 232 234 230 223 208 207 213 208 200 204 217 220 214 183 126 121 64 31 312 9 21 342 314 114 105 261 183 153 186 339 13 8 6 10 4 355 350 337 326 324
171 160 151 148 144 148 160 170 178 181 182 185 184 180 179 185 194 195 194 198 196 192 200 212 218 220 227 231 229 220 200 198 209 211 215 229 237 237 239 240 239 253 287 274 233 229 235 231 220 213 220 224 219 216 217 216 213 216 224 244 277 283 204 179 302 321 324 322 339 90 310 10 99 96 42 27 22 6 5 2 356 339 325 319 319
132 118 110 109 113 126 142 149 160 169 172 178 184 183 183 192 204 207 199 200 204 201 203 216 224 222 224 230 235 232 225 222 221 217 218 230 235 236 241 246 252 262 266 254 239 236 239 238 229 221 222 224 222 222 221 216 210 207 211 212 209 210 206 226 292 323 341 340 354 23 15 33 60 63 52 44 53 59 30 13 357 334 325 324 321
104 98 100 105 107 118 138 150 159 165 168 176 182 182 181 189 202 215 221 218 220 224 226 230 232 225 219 229 247 245 233 230 229 223 223 231 235 240 253 258 255 249 244 245 246 244 244 244 236 230 229 229 229 231 230 227 227 222 211 200 189 193 205 195 189 343 356 351 1 20 30 34 37 43 62 69 64 41 10 356 346 335 333 333 323
78 82 89 100 108 114 128 140 147 157 168 178 183 184 184 184 188 199 218 226 228 232 236 241 243 237 229 238 256 254 237 232 232 228 230 240 243 247 263 268 261 257 250 247 249 246 241 236 232 233 234 233 234 235 230 228 231 230 221 212 204 203 205 194 181 145 54 36 20 23 25 23 27 32 39 28 6 354 348 342 339 331 324 320 310
89 96 94 94 106 115 114 119 129 139 151 162 173 181 182 181 178 184 204 220 227 231 235 239 245 243 238 242 250 247 236 234 234 229 232 239 241 245 259 269 265 264 256 243 240 239 234 231 230 223 221 226 229 229 231 232 232 230 225 220 218 217 219 223 230 232 186 65 44 26 15 23 50 49 15 352 349 345 339 331 325 316 309 305 300
66 74 85 87 90 101 102 98 106 116 128 142 160 176 177 178 178 183 198 212 219 228 234 238 243 243 242 246 244 235 234 239 239 232 228 234 240 244 252 256 256 255 249 238 233 226 220 225 224 208 204 215 215 213 229 236 232 231 228 226 227 228 230 238 243 240 239 238 238 16 348 144 105 78 344 326 335 337 331 320 313 309 305 302 301
46 37 40 45 44 54 67 68 73 87 102 120 146 175 177 182 190 195 205 220 226 231 233 234 237 237 236 239 237 232 236 243 243 239 235 237 242 244 242 241 243 243 237 225 216 207 205 213 214 204 204 209 203 202 220 224 221 227 225 222 228 233 234 237 236 230 230 229 219 221 239 239 230 259 287 304 312 310 307 307 307 308 309 308 307
37 28 25 24 22 24 33 41 45 43 47 68 77 233 175 177 192 199 208 223 230 231 233 235 240 241 237 236 238 238 241 244 242 242 244 243 240 235 230 230 230 226 211 193 185 188 195 203 208 205 202 198 192 196 209 209 207 216 205 195 205 220 222 223 223 223 224 223 220 229 250 262 267 278 290 299 302 302 305 308 311 318 321 318 314
19 21 17 10 9 11 14 17 17 14 8 1 354 350 349 198 204 203 205 214 215 216 225 231 236 242 243 241 241 241 242 243 240 240 241 239 234 225 214 212 216 214 200 187 181 177 175 179 191 194 189 186 185 190 196 194 185 181 177 174 182 205 220 224 226 226 226 228 238 250 263 273 279 288 297 303 305 306 309 314 322 329 323 312 307
2 6 4 358 359 3 4 5 5 2 354 351 353 353 345 330 308 269 240 233 223 214 217 220 222 227 232 234 234 235 239 239 238 238 235 228 224 213 200 200 209 205 188 179 179 177 172 165 161 170 174 175 179 184 188 184 177 175 174 175 182 204 225 232 227 225 228 239 259 273 279 285 293 299 303 308 310 307 303 303 315 324 316 301 298
350 348 349 347 347 348 348 352 355 351 343 342 344 342 336 326 312 299 278 261 250 234 221 216 217 217 220 227 228 226 230 232 229 227 221 212 207 198 195 206 210 185 164 159 170 174 172 169 159 156 163 169 177 186 190 182 176 178 182 185 193 207 219 222 209 209 222 247 278 294 299 301 303 304 306 312 312 300 287 282 288 300 297 287 288
340 336 335 335 333 331 332 335 338 335 329 328 329 326 323 315 307 304 294 273 264 256 238 226 223 216 211 217 221 218 221 223 217 212 208 203 197 193 200 217 210 178 162 154 158 163 162 164 164 159 160 171 179 186 186 182 181 185 190 194 191 183 187 185 170 169 190 250 282 295 298 296 293 294 298 303 300 288 278 276 276 280 294 304 307
337 333 328 324 321 320 321 321 321 318 314 312 309 306 306 303 300 302 300 283 269 267 257 238 232 225 212 208 212 214 218 220 215 212 212 206 199 197 207 222 214 186 178 164 155 164 170 165 166 166 164 170 178 181 181 182 182 172 170 169 152 139 144 162 175 196 250 290 296 295 291 285 281 281 286 292 297 291 282 284 283 279 297 319 326
334 330 324 320 318 317 315 311 309 307 303 298 295 292 292 291 291 293 294 288 278 273 269 255 249 243 217 199 200 210 216 220 220 218 216 211 205 202 207 216 215 191 191 183 164 165 175 172 170 171 166 165 172 179 181 181 174 148 136 137 139 140 143 156 192 270 299 311 307 301 298 295 292 292 293 303 347 24 28 339 315 304 308 319 323
328 324 322 321 319 315 311 307 305 302 298 295 292 288 284 281 280 280 281 282 279 273 269 265 264 262 234 201 198 207 213 216 220 221 219 214 210 209 211 215 218 203 193 190 178 168 173 176 172 166 161 160 167 176 182 185 184 162 128 115 143 179 265 269 228 270 272 278 291 295 295 293 296 305 313 324 344 345 325 313 314 314 318 323 321
325 323 322 321 318 316 313 311 309 306 302 299 295 290 284 279 274 269 268 270 272 269 265 260 259 261 251 223 207 204 207 216 223 223 221 217 213 214 216 218 221 216 194 187 187 183 179 175 170 165 163 163 169 175 179 183 193 193 223 320 316 319 330 339 297 273 265 266 278 283 287 295 310 324 324 319 314 310 308 310 313 314 316 318 316
327 324 321 319 317 315 314 313 311 309 306 304 300 294 290 286 281 275 269 264 264 263 261 260 258 255 252 244 228 211 204 214 225 224 218 216 215 215 216 217 220 220 198 182 185 185 178 172 168 165 164 165 169 173 175 179 191 223 293 310 320 337 353 356 310 289 287 285 288 293 305 326 337 330 320 312 309 312 317 321 322 319 317 317 318
324 321 319 319 319 317 315 313 312 310 307 305 303 299 295 292 287 283 278 273 269 265 260 258 257 254 254 259 259 245 215 205 216 222 216 211 212 213 213 213 214 211 192 178 178 174 169 167 165 162 163 167 170 171 172 179 191 225 284 297 79 96 103 232 260 301 311 312 317 327 338 338 329 322 322 322 322 327 335 338 334 329 324 322 320
321 319 318 319 318 315 313 311 310 310 307 302 300 297 294 293 289 285 282 278 275 272 267 260 251 248 250 254 258 270 271 238 212 223 223 215 211 211 210 209 207 199 181 171 169 165 163 164 164 164 165 166 170 172 172 180 187 175 131 126 126 129 161 212 268 291 293 304 326 339 337 330 322 319 320 323 326 330 332 334 333 330 326 325 323
319 315 313 314 314 312 312 312 311 310 306 303 303 299 293 291 290 286 286 287 289 291 292 289 273 252 242 237 233 245 263 261 241 233 236 229 219 210 200 192 189 184 174 167 163 161 161 161 160 161 164 165 168 168 163 160 154 137 124 134 154 200 233 256 321 314 247 270 331 336 327 321 320 321 324 325 327 330 332 333 332 328 325 324 320
315 311 310 310 310 311 313 314 315 314 312 311 311 308 303 300 296 289 287 289 297 307 313 315 312 296 261 239 227 221 229 236 236 235 235 230 223 210 194 186 187 184 177 173 167 160 158 159 159 159 162 164 167 170 168 159 151 154 176 182 180 198 202 189 39 50 121 353 336 331 321 314 315 321 327 329 329 332 333 330 328 325 321 317 311
312 310 310 309 313 320 318 313 312 315 315 313 311 309 309 310 308 303 297 293 292 296 299 298 296 297 296 277 249 231 227 227 224 224 227 221 216 216 211 208 209 198 184 179 173 163 158 159 160 162 164 164 171 187 186 172 162 173 193 200 185 164 155 143 106 21 23 358 336 323 312 310 316 322 325 326 326 326 324 320 318 317 313 310 309
314 313 313 312 317 322 318 311 310 310 311 314 313 310 310 311 309 308 307 304 299 296 297 294 288 284 284 284 278 270 260 245 230 225 226 219 214 216 214 207 204 197 186 178 172 164 161 160 160 164 169 171 185 197 186 171 169 177 181 184 191 199 192 186 210 282 338 333 317 310 307 309 317 327 331 331 330 326 322 316 312 310 310 310 308
318 315 314 313 315 315 313 311 311 309 307 308 308 307 306 308 308 307 306 308 308 304 299 294 287 279 276 276 275 272 274 270 250 234 230 223 213 209 205 203 207 203 192 183 173 164 162 163 163 169 179 186 194 192 174 164 171 176 174 177 182 183 180 183 202 272 309 299 296 306 311 316 328 339 339 334 330 326 322 319 319 318 317 315 311
320 316 313 313 313 313 311 309 304 299 297 298 300 302 299 297 299 303 305 308 310 312 310 301 286 274 271 271 265 258 261 263 249 231 226 221 212 205 201 207 212 205 192 182 174 164 163 167 171 178 188 191 185 172 163 165 171 171 170 174 173 169 166 159 126 350 293 296 309 309 309 317 327 329 326 321 316 315 317 319 320 319 316 316 316
319 317 315 314 311 307 304 301 294 289 289 289 290 292 292 291 293 296 300 305 308 311 313 306 289 274 271 269 260 249 245 243 237 227 217 210 205 202 201 206 207 201 190 182 172 166 170 178 180 182 185 180 166 159 162 167 167 165 166 167 158 152 145 122 92 86 339 321 316 311 314 323 321 313 310 309 308 309 311 311 312 313 314 314 313
324 325 322 321 317 311 309 306 299 292 290 288 286 284 283 289 294 295 296 302 304 305 309 307 295 280 279 276 265 250 238 234 230 222 214 208 204 196 188 189 192 190 184 179 173 173 179 181 176 173 171 164 158 160 164 163 161 165 170 170 166 150 125 116 128 50 350 332 317 316 325 329 326 319 315 316 318 317 317 316 317 317 314 309 308
333 334 330 327 326 323 320 315 308 305 305 303 300 293 285 282 285 288 293 297 294 296 306 311 299 281 278 273 263 251 239 232 226 221 219 217 209 194 182 180 184 186 183 184 187 182 176 170 164 162 160 155 155 160 164 160 160 165 165 158 154 153 140 132 135 8 347 336 325 327 329 329 331 334 335 332 329 327 329 333 333 328 321 316 314
341 338 330 330 332 330 326 319 311 310 312 312 310 305 294 283 276 277 288 296 295 298 307 307 289 268 260 247 233 229 227 224 220 218 214 204 194 187 181 178 179 181 183 195 202 178 160 156 158 155 150 150 154 159 162 160 160 163 157 144 135 149 159 186 234 265 353 4 346 338 338 338 339 342 341 339 340 343 345 344 340 331 325 322 318
347 342 335 336 337 334 330 324 317 314 312 311 312 312 305 296 286 282 289 295 293 296 304 301 274 238 223 211 199 195 195 191 185 184 182 176 173 175 177 177 177 177 181 196 199 162 149 151 152 147 147 154 160 161 159 155 151 144 139 140 162 179 193 266 256 208 69 29 7 351 347 345 343 344 349 355 359 359 352 341 331 323 320 319 317
350 344 340 340 339 337 334 331 327 323 319 316 317 316 311 303 295 289 291 295 293 299 309 303 275 225 206 205 187 167 160 157 154 155 158 160 163 167 168 170 174 173 171 172 158 141 141 143 140 142 150 157 156 152 148 144 137 132 135 146 172 171 156 39 88 125 75 25 11 356 346 341 343 350 359 4 358 349 338 331 327 323 320 319 319
352 343 341 340 339 340 340 335 329 324 321 320 319 317 314 311 305 299 299 302 305 312 314 303 273 222 208 204 183 160 150 151 152 154 155 155 158 157 149 144 143 142 141 137 126 127 135 137 134 139 145 143 137 137 136 134 131 131 137 134 112 103 89 69 79 88 46 25 9 345 337 342 350 357 1 359 349 341 336 333 332 329 325 322 321
355 347 345 342 340 342 342 337 333 332 330 328 323 318 315 314 312 310 312 317 321 324 322 312 222 175 190 183 166 157 156 152 148 146 139 130 130 134 132 127 126 129 135 135 127 127 132 132 130 132 132 124 121 125 126 126 125 118 111 107 101 89 74 67 70 57 38 31 1 336 343 1 4 359 1 358 351 348 345 340 336 332 329 326 326
7 1 352 346 345 346 346 344 345 347 349 351 350 345 336 329 326 326 329 336 354 21 45 73 93 111 141 145 139 139 146 146 144 139 128 113 114 126 131 131 130 132 136 137 132 128 128 127 127 128 126 120 120 124 122 113 108 104 98 97 100 92 73 65 61 46 38 28 347 343 2 13 3 1 8 6 355 349 346 340 335 331 330 331 333
18 13 359 353 353 353 352 351 352 351 355 2 8 8 2 357 1 8 14 30 59 69 74 84 96 104 112 117 120 125 132 135 136 135 131 124 121 125 127 126 124 125 127 128 127 128 129 129 128 127 123 119 118 118 113 103 101 100 94 90 96 99 82 63 56 46 36 16 359 6 12 6 3 14 20 7 353 346 341 336 331 330 334 339 341
25 17 4 360 1 1 359 358 358 0 9 22 29 30 28 29 33 40 52 69 77 80 87 97 100 99 98 99 106 114 118 120 122 124 124 120 116 113 111 109 110 114 119 124 131 136 137 134 131 126 121 117 115 114 112 110 110 109 104 99 97 88 65 52 51 44 26 11 16 20 4 355 9 27 14 357 352 346 340 336 335 339 347 348 343
31 23 13 8 7 8 5 3 4 11 23 34 40 42 44 46 47 49 56 65 72 80 90 95 94 95 97 101 106 108 105 104 107 112 115 113 107 104 103 103 105 109 113 118 125 131 131 131 129 124 116 111 110 112 112 111 111 114 113 104 86 64 51 46 43 34 16 11 20 17 359 356 24 25 354 349 347 341 337 340 345 347 347 345 339
41 35 25 18 17 18 14 11 12 20 28 33 38 42 45 47 48 49 54 60 66 72 76 75 81 96 106 111 112 108 102 99 102 105 106 106 102 99 100 102 102 103 108 113 118 122 123 123 123 120 114 108 103 99 97 96 98 104 102 88 71 57 44 36 31 25 18 15 15 15 23 45 51 25 356 348 344 342 345 354 353 346 341 338 336
47 42 34 29 27 25 21 20 23 29 34 37 40 43 46 49 49 48 49 53 58 61 60 59 69 90 107 115 118 114 107 105 105 104 103 103 102 101 101 102 101 102 107 113 117 120 121 121 122 123 122 119 116 114 111 109 109 102 79 67 68 58 39 28 25 25 23 22 21 26 42 49 32 6 354 350 349 352 356 353 347 343 341 341 343
48 48 45 41 38 35 30 29 34 40 42 44 46 49 52 54 54 52 52 53 55 56 59 62 70 83 95 106 111 112 110 108 108 106 103 102 103 104 106 108 110 111 111 111 113 114 113 115 121 126 125 124 124 125 124 121 108 68 47 46 57 54 33 23 21 24 28 28 30 39 46 35 13 359 354 353 354 357 352 343 341 342 343 346 356
50 56 58 53 48 45 42 41 43 46 50 55 58 59 59 61 62 61 60 59 59 61 64 68 72 79 87 93 98 100 101 101 101 103 104 105 106 108 112 114 116 116 113 111 112 114 115 118 122 122 117 115 118 120 112 96 68 44 37 37 48 50 26 15 17 27 34 32 37 46 44 29 14 6 1 355 353 353 348 344 345 348 349 357 11
59 60 63 65 61 53 50 56 58 54 53 57 62 63 63 64 66 68 70 70 73 76 77 77 79 82 86 90 94 95 96 97 98 101 105 106 107 110 114 114 111 109 106 103 103 105 110 115 119 118 113 111 112 104 89 74 57 47 45 44 47 49 24 15 19 28 33 36 40 40 34 25 19 14 8 2 358 355 351 349 352 356 1 10 13
73 65 61 66 72 68 60 61 64 63 62 63 63 64 65 65 66 72 76 77 79 82 85 88 90 91 92 94 96 97 99 101 103 105 107 108 107 108 109 109 109 108 106 104 104 103 101 101 107 115 117 112 95 76 73 69 63 60 57 52 53 55 35 23 25 33 39 40 37 32 28 25 19 11 7 5 1 358 357 357 357 359 6 10 6
Height
794 797 799 800 801 802 804 805 807 808 809 812 813 815 817 819 820 821 822 823 823 824 824 825 825 825 825 826 826 827 827 828 828 829 830 830 831 832 832 833 833 834 834 835 835 836 836 836 836 836 837 837 837 838 838 838 838 839 839 839 840 840 841 843 846 849 851 852 853 853 854 855 855 856 856 857 857 857 857 857 856 856 856 856 856
793 795 797 799 800 801 803 804 806 808 809 811 813 815 817 818 820 821 822 823 824 824 825 825 826 826 826 826 826 827 827 828 829 829 830 831 831 832 833 833 834 835 835 836 836 837 837 837 837 837 837 838 838 838 838 838 839 839 840 841 841 842 842 843 845 848 850 851 852 853 854 854 855 855 856 856 856 856 856 856 856 855 854 854 855
792 793 795 797 798 800 802 803 805 807 808 811 813 815 817 818 820 821 822 823 824 825 825 826 826 826 826 826 826 827 828 828 829 830 830 831 832 833 834 834 835 835 836 837 837 837 838 838 838 838 838 838 838 839 839 839 839 840 841 842 842 843 844 844 845 847 849 850 851 852 853 853 854 854 855 855 855 855 855 856 856 856 855 854 854
792 793 794 796 797 799 801 803 805 806 808 811 813 815 818 819 821 822 823 823 824 825 825 826 826 826 826 826 827 827 828 828 829 830 831 832 833 834 834 835 835 836 837 837 837 838 838 839 839 839 839 839 840 840 840 840 841 841 842 842 843 843 844 845 845 847 848 849 850 851 852 853 854 854 854 855 855 855 856 856 855 856 856 856 855
794 794 794 794 796 798 800 802 804 806 809 812 814 817 819 820 821 823 823 823 824 824 825 825 826 826 826 826 827 827 828 829 830 831 832 833 833 834 834 835 836 836 837 837 837 838 839 839 840 840 840 840 841 841 841 841 841 842 842 842 843 844 844 845 846 846 847 848 849 850 851 852 853 853 853 854 854 855 855 855 855 855 855 856 857
794 796 796 795 795 797 799 801 803 806 809 811 814 818 821 822 822 823 823 823 823 824 824 825 825 825 826 826 827 827 828 830 831 831 832 833 834 834 835 835 836 837 837 838 838 839 839 840 840 840 841 841 841 841 842 842 842 843 843 843 843 844 844 845 846 846 847 848 848 849 850 851 852 852 853 853 854 854 854 854 854 854 855 856 857
794 797 798 797 796 797 798 800 802 805 808 810 812 816 819 821 821 821 822 822 823 823 823 824 824 824 825 825 826 827 829 830 831 832 833 833 834 834 835 836 837 837 838 839 839 840 840 841 841 841 842 842 842 842 842 843 843 843 844 844 844 844 845 846 846 846 847 848 848 849 850 850 851 851 852 852 853 853 853 853 854 854 855 856 856
795 796 797 797 798 798 799 801 802 804 807 809 810 811 814 817 819 820 821 821 821 822 822 823 823 823 824 825 826 827 828 829 831 831 832 832 833 834 835 836 837 838 839 839 840 841 841 842 842 843 843 843 842 843 843 843 844 844 844 845 845 845 846 846 847 847 847 847 848 848 849 850 850 850 851 852 852 852 852 853 854 854 855 856 855
794 794 794 796 798 799 800 801 802 804 806 808 809 810 811 814 816 818 819 819 819 820 820 821 822 822 823 824 825 825 826 827 828 828 829 831 833 834 835 836 837 839 840 840 840 840 841 841 841 841 842 842 842 843 843 844 844 844 844 845 845 846 846 847 847 847 847 847 847 848 848 849 849 850 851 851 852 852 852 853 854 854 855 854 854
793 793 794 795 797 799 801 802 803 804 806 808 809 810 812 814 815 816 816 816 817 818 819 820 820 821 822 823 823 823 825 827 827 827 828 830 832 833 834 835 837 838 839 839 839 839 840 841 840 839 840 840 841 842 843 844 844 844 844 845 846 846 847 847 847 847 847 847 847 847 848 849 849 850 851 851 851 852 852 852 853 853 853 853 852
795 796 796 797 798 800 802 804 805 806 807 808 810 811 813 814 815 816 816 816 817 818 818 819 819 820 821 821 822 823 825 826 826 827 827 828 830 831 831 833 835 836 837 837 837 838 839 840 839 839 840 840 840 841 842 843 844 844 845 845 846 846 847 847 847 847 847 847 847 847 848 848 849 849 850 850 850 851 852 852 853 853 853 852 851
798 798 799 800 801 802 803 805 806 807 807 808 809 811 813 814 815 816 816 816 817 818 818 818 819 820 821 821 822 823 825 826 826 826 826 827 829 830 830 832 833 834 834 835 836 836 837 837 838 839 840 840 840 841 841 842 843 844 844 845 845 846 846 846 846 847 847 847 848 848 848 849 849 849 849 850 850 851 851 852 852 852 852 852 851
801 801 801 803 803 803 804 805 806 807 807 808 809 810 812 813 814 815 816 816 817 817 818 818 818 819 820 821 822 823 824 825 824 825 826 827 828 829 829 830 831 832 833 833 833 834 834 835 837 837 838 840 840 840 840 841 842 843 844 844 845 845 846 846 846 847 847 847 848 848 848 849 849 849 850 850 850 851 851 851 852 852 851 851 850
803 803 804 805 804 804 805 805 806 807 808 809 810 810 812 813 814 814 814 815 815 816 816 817 817 818 818 820 821 821 822 823 823 823 824 825 826 827 828 829 829 830 831 831 831 832 833 834 835 836 837 839 839 839 838 839 841 842 843 843 844 845 845 846 846 847 847 847 848 848 848 848 849 849 850 850 850 850 851 851 851 850 850 849 848
805 806 806 807 806 806 806 806 807 807 808 809 810 810 811 812 813 813 813 813 814 814 814 815 815 815 816 818 819 819 819 820 821 821 822 823 823 825 826 827 827 828 828 828 829 830 832 832 833 834 835 837 838 838 838 838 840 841 841 842 843 844 845 845 845 846 846 847 847 848 848 849 849 849 849 850 850 850 850 850 850 849 848 847 846
808 809 809 810 810 809 808 808 808 808 809 809 810 810 810 810 811 812 812 812 812 813 813 813 813 812 813 814 816 817 816 817 818 820 820 821 821 822 823 824 825 826 826 826 827 829 830 831 832 832 834 835 837 837 837 838 839 840 840 842 843 843 844 844 845 845 846 846 847 848 848 849 849 849 849 849 849 849 849 849 849 848 847 846 845
812 813 813 814 814 812 810 809 809 809 809 809 809 809 809 810 810 810 811 811 811 811 812 812 812 812 811 812 814 815 815 815 817 818 818 819 820 821 822 822 823 825 825 825 826 827 828 829 830 831 833 834 835 836 837 838 839 839 840 842 842 843 843 844 845 845 846 846 847 847 848 848 848 848 848 848 848 848 847 847 847 846 846 845 844
815 816 817 817 816 814 813 811 811 810 810 810 809 809 809 809 809 809 810 810 810 810 811 811 812 812 812 813 814 814 814 815 816 816 817 818 819 820 821 821 822 824 825 825 825 825 826 828 829 830 831 833 834 835 836 837 838 839 840 841 842 842 843 843 844 844 845 846 846 847 847 847 847 847 847 847 847 846 846 845 845 845 845 844 844
819 819 820 819 818 816 815 814 813 813 812 811 811 810 810 809 809 809 809 809 809 809 810 810 811 812 812 813 813 814 814 814 814 815 815 816 818 818 820 820 821 822 824 824 825 825 826 827 828 829 831 832 833 834 835 836 837 838 839 840 841 841 841 842 843 844 844 845 846 846 846 846 846 846 846 846 845 845 844 844 844 844 844 844 843
820 820 820 820 819 818 816 816 815 815 814 813 812 811 810 810 809 809 808 808 808 808 808 809 809 809 810 811 811 812 813 813 813 814 814 815 816 817 818 819 820 821 822 823 825 826 826 827 827 829 830 831 832 833 834 835 836 837 838 839 840 840 841 842 843 843 844 845 845 845 845 845 845 845 844 844 844 843 843 843 844 844 843 843 843
821 821 821 820 819 818 817 817 816 815 815 813 812 811 811 810 809 808 807 807 807 806 806 807 807 807 807 808 808 809 811 811 811 812 813 814 815 816 816 817 819 820 821 822 823 824 825 826 827 828 829 830 832 833 833 835 836 837 837 838 839 840 841 842 842 843 844 844 844 844 844 844 844 843 843 843 842 842 843 843 844 844 844 843 842
821 821 821 820 819 818 817 817 816 815 814 813 812 811 810 809 809 808 807 807 806 805 805 805 805 805 805 805 805 807 808 809 810 810 811 812 813 813 814 815 817 818 820 822 822 822 823 825 826 828 829 830 831 832 833 835 836 836 837 838 839 840 841 842 842 843 843 843 843 843 843 843 843 843 843 843 842 842 843 844 844 844 843 843 842
822 821 820 820 819 818 817 816 815 814 813 812 810 809 808 808 808 807 806 805 805 804 803 803 803 803 803 802 803 804 805 806 808 808 809 810 810 811 812 813 815 816 817 819 820 820 821 823 825 827 829 830 831 832 833 834 835 836 837 838 839 840 840 841 841 842 842 842 843 843 843 843 843 842 843 843 842 842 842 842 842 842 841 841 840
822 820 819 819 818 817 816 815 814 812 811 810 809 808 807 806 805 805 805 804 803 802 802 802 801 801 801 801 800 801 802 804 805 806 807 807 808 809 810 811 812 814 815 815 817 818 820 822 824 825 827 829 831 832 833 834 835 836 837 837 838 838 839 840 840 841 841 842 842 842 842 842 842 842 842 842 841 841 841 841 841 840 839 839 838
821 820 819 818 817 816 815 814 813 812 811 810 808 807 806 805 804 803 802 802 801 800 800 800 799 799 799 799 799 800 800 801 803 804 805 806 807 807 808 809 810 812 812 813 814 816 818 820 822 824 826 828 830 831 833 834 835 836 836 837 837 838 838 839 840 841 841 842 842 842 842 841 841 841 841 841 841 841 841 840 839 838 838 837 837
821 820 819 818 817 816 815 813 812 811 810 809 808 806 805 804 802 801 801 800 799 798 798 798 797 797 797 798 799 800 800 800 801 802 803 804 804 805 806 807 808 809 810 811 813 814 817 819 821 823 825 827 829 831 832 833 835 836 836 837 837 838 838 839 840 840 841 841 841 841 841 841 841 841 840 840 840 840 839 838 837 837 837 837 836
821 820 819 818 817 816 814 813 812 810 809 808 807 806 804 803 802 801 800 799 798 797 796 796 795 795 795 796 797 800 801 802 801 801 804 804 803 804 805 805 806 807 808 810 812 813 816 818 820 822 824 826 828 829 831 833 834 835 836 837 838 838 838 839 840 840 840 841 841 840 840 840 840 840 840 840 840 839 838 837 837 837 837 837 836
821 820 819 818 817 815 814 813 811 810 809 807 806 805 804 803 801 800 799 798 797 796 795 794 793 792 792 792 793 796 800 803 803 802 803 805 806 805 804 804 806 806 807 809 810 812 815 817 819 821 823 825 827 829 831 833 834 835 837 837 838 838 838 839 840 840 840 840 840 840 840 840 840 840 840 839 839 838 838 838 837 837 837 836 835
821 820 819 818 817 815 814 813 811 810 808 807 806 804 803 802 801 799 798 797 796 796 795 794 793 791 790 791 791 792 795 799 802 803 803 804 807 808 806 806 807 807 808 808 810 811 814 815 818 820 822 825 827 829 831 832 834 835 836 837 837 838 838 839 840 840 840 840 840 840 841 840 840 840 839 839 838 838 838 837 837 837 837 836 835
821 820 819 818 817 816 814 813 812 811 809 807 805 803 801 800 799 798 796 795 794 794 793 793 792 792 792 792 792 792 792 793 797 801 803 803 806 809 810 809 807 807 808 809 810 811 813 815 817 820 822 825 827 829 831 832 833 835 835 836 837 837 837 839 839 839 839 840 840 841 840 840 840 839 838 838 838 837 837 837 837 837 836 835 834
821 820 818 818 817 816 815 814 812 811 810 808 805 803 800 798 796 795 795 793 792 791 791 790 790 790 790 791 791 791 791 791 792 796 799 801 803 807 810 810 808 808 808 808 809 811 812 815 818 820 823 825 827 828 830 831 832 833 834 836 836 837 837 838 838 838 839 840 840 840 840 839 839 838 837 837 837 837 837 837 837 836 835 834 834
820 819 818 817 816 815 814 813 812 811 810 808 806 804 802 799 796 794 793 792 791 790 788 787 787 786 787 788 788 789 789 790 790 791 795 798 800 803 805 807 809 810 809 808 809 810 812 815 818 820 823 825 826 827 829 830 831 833 834 835 835 836 837 838 838 838 839 839 840 840 839 838 838 837 837 837 836 836 836 836 836 835 834 833 833
819 818 817 816 815 814 813 812 811 810 808 807 806 804 803 800 798 795 793 792 790 789 787 786 785 784 784 785 786 787 787 788 789 790 792 795 797 799 801 804 808 810 809 808 809 811 813 815 818 820 822 824 825 827 828 829 831 832 833 834 834 835 836 836 837 838 838 838 839 839 838 837 837 836 836 836 836 836 836 835 835 834 833 832 831
818 817 816 815 814 813 812 811 810 808 807 806 804 803 802 800 798 796 795 793 791 789 787 785 783 782 782 782 783 784 785 786 787 789 790 792 794 795 798 803 808 809 808 808 809 811 813 815 817 819 821 823 824 826 828 829 830 831 832 833 834 835 835 836 836 837 837 837 838 838 837 837 836 835 835 835 835 835 834 834 833 833 832 832 831
817 816 815 814 813 812 811 809 808 806 805 804 803 801 800 799 798 796 795 794 792 790 788 786 783 781 780 780 781 782 783 784 785 786 787 789 790 791 794 801 808 810 808 808 808 810 812 814 816 818 820 822 824 826 828 829 830 831 832 833 833 834 835 836 836 836 836 837 837 837 837 836 836 835 834 834 834 834 833 833 832 832 831 831 830
815 815 814 813 812 811 810 808 807 805 803 802 801 799 798 797 796 795 794 793 792 790 788 787 784 781 780 779 779 779 780 781 782 783 784 785 787 789 790 795 802 807 808 808 808 808 810 812 815 817 820 822 824 826 827 828 829 830 831 832 833 834 835 835 836 836 836 837 837 837 836 836 835 835 834 833 833 833 832 832 832 831 830 830 829
815 814 813 812 811 810 808 807 805 804 802 801 799 797 796 795 794 794 793 792 791 789 787 786 784 781 779 778 778 777 778 779 779 781 782 783 786 789 790 791 796 802 805 807 807 808 809 812 815 817 820 822 824 826 827 828 829 830 830 831 832 833 834 835 835 836 836 836 836 836 836 836 835 834 833 833 832 832 832 831 831 830 830 829 827
814 813 812 811 810 809 807 806 804 803 801 800 798 797 795 794 793 793 792 791 790 788 787 785 784 782 779 778 778 777 777 778 779 781 783 785 788 792 794 795 796 799 802 805 807 807 808 812 815 817 820 823 825 826 827 828 828 829 830 831 832 833 834 834 835 835 836 836 836 836 836 835 835 834 833 832 832 831 831 831 830 829 828 827 826
814 813 812 810 809 808 807 805 804 802 800 799 797 796 794 793 793 792 791 790 789 788 786 785 783 781 779 779 779 779 779 780 781 783 785 788 790 792 794 796 798 799 801 803 805 806 808 812 815 818 821 823 824 825 826 827 828 828 829 831 832 832 833 834 834 834 835 835 835 835 835 835 834 833 833 832 832 832 831 831 830 828 827 826 825
813 812 811 810 809 808 807 805 803 801 799 798 796 795 794 793 792 791 790 789 788 786 785 782 780 779 779 779 780 781 781 782 783 785 787 789 791 792 793 796 800 801 802 803 804 806 809 813 816 819 821 823 824 824 825 826 828 829 830 830 831 832 833 834 834 834 834 835 835 835 835 834 834 833 833 833 832 832 831 830 829 828 826 825 824
812 812 811 809 808 807 806 804 802 800 798 797 796 794 793 792 791 790 789 788 786 785 783 781 780 780 780 780 781 784 784 784 785 788 790 792 793 793 794 798 801 803 804 806 807 808 811 814 817 820 821 823 823 824 826 827 828 829 829 830 831 832 833 833 833 834 834 835 835 835 835 834 834 833 833 833 832 831 830 829 828 827 825 824 822
812 811 810 809 808 807 805 804 801 799 798 797 795 794 793 791 790 790 788 787 786 785 784 783 782 782 782 783 784 786 787 787 788 790 792 795 796 796 798 801 803 804 806 808 809 811 813 815 818 820 822 823 824 825 826 827 828 828 829 830 831 833 833 833 833 833 834 835 835 835 835 834 834 833 833 832 831 830 829 828 827 825 824 823 821
812 811 810 809 808 807 806 804 801 800 798 797 796 794 793 791 791 790 789 789 789 787 787 787 786 785 786 786 787 788 789 790 791 792 794 797 799 799 801 804 805 807 809 811 812 813 815 817 819 820 822 823 824 825 826 827 828 829 830 831 832 833 834 833 833 833 834 834 835 835 834 834 834 833 833 832 831 829 828 827 825 824 823 822 820
812 811 810 809 808 807 806 804 802 800 799 798 797 796 794 793 793 791 790 791 791 790 790 790 789 788 789 790 790 791 792 793 794 795 797 798 800 800 803 805 807 809 812 813 814 815 816 817 819 821 822 823 824 825 827 828 829 830 831 832 833 833 833 833 833 833 834 834 834 834 834 834 833 832 832 831 830 828 827 826 824 824 823 821 819
812 811 811 810 809 808 807 805 803 802 801 799 798 797 796 795 795 794 793 793 793 793 793 793 791 791 792 793 793 794 795 796 797 798 799 801 802 803 805 807 809 812 813 815 816 816 817 818 820 822 823 824 826 827 829 830 830 831 831 832 833 833 832 832 833 833 834 834 833 833 833 833 832 831 831 830 829 828 826 825 824 823 822 820 819
812 812 811 811 810 809 809 807 805 804 803 801 800 800 799 798 798 797 796 796 796 795 795 794 794 794 795 795 797 798 799 800 801 802 803 804 806 807 809 810 812 814 816 817 817 818 819 820 821 822 824 826 828 829 831 831 831 831 832 832 833 832 832 833 833 833 833 833 833 832 832 832 831 831 830 829 828 827 826 825 824 823 821 820 818
813 813 812 812 811 811 810 809 807 806 805 804 803 802 802 801 801 800 799 799 798 798 798 797 797 797 798 799 800 801 802 804 805 806 807 808 809 810 812 814 815 817 819 819 819 820 820 821 823 824 826 828 829 830 831 831 831 831 832 832 832 832 833 833 833 833 833 833 832 832 832 831 831 830 829 829 828 827 826 825 823 822 820 819 818
814 813 813 813 812 812 811 810 809 809 808 807 806 805 805 804 804 803 802 802 801 801 801 800 800 800 801 802 803 804 806 807 808 809 810 811 812 813 815 816 818 820 820 821 821 821 822 823 825 826 827 829 830 830 831 831 831 832 832 832 832 833 833 833 833 833 833 833 832 831 831 831 830 830 829 828 827 827 826 824 823 821 819 818 817
814 814 814 814 813 813 812 812 811 811 810 809 808 808 807 807 806 806 806 805 805 804 804 804 803 804 804 805 806 807 808 809 810 811 812 814 815 816 817 819 820 821 822 822 823 823 824 825 827 828 829 829 830 831 831 831 831 832 832 832 832 833 833 833 833 833 832 832 832 831 831 831 830 829 829 828 827 826 825 824 822 820 819 818 817
814 814 814 814 814 814 814 813 813 812 812 811 811 810 810 810 809 809 809 808 808 807 807 807 807 808 808 808 809 810 811 812 813 814 815 817 818 819 820 821 822 823 823 824 825 825 826 827 828 829 829 830 830 831 831 832 831 832 832 832 833 833 833 833 833 832 832 832 832 831 831 830 829 829 828 828 827 826 825 823 822 820 819 818 817
814 814 814 814 814 815 815 814 814 814 814 813 813 813 812 812 812 812 811 811 811 810 810 810 811 811 811 812 813 813 814 815 816 817 818 820 821 822 823 823 824 824 825 825 826 827 828 829 829 830 830 830 831 832 832 831 832 832 832 832 833 833 833 833 833 832 832 832 832 831 831 830 829 829 828 828 827 826 825 823 822 820 819 818 817